Theta_e
318 311 307 308 298 296 293 298 301 300 300 302 309 309 307 308 309 305 323 327 331 332 337 340 343 344 344 343 342 343 342 341 341 340 340 340 339 339 338 338 338 338 337 337 336 335 334 333 333
315 313 309 302 293 289 293 297 298 300 303 306 305 306 306 303 313 315 317 325 329 332 334 337 340 342 341 341 340 339 339 338 337 337 336 335 334 334 334 333 332 332 332 331 329 328 327 326 326
313 313 302 296 292 289 290 294 297 298 301 300 302 304 304 306 314 314 320 325 328 329 332 334 338 339 338 337 336 335 335 335 334 333 332 331 330 329 329 328 327 327 327 326 325 324 323 322 322
302 301 299 292 289 294 294 293 299 298 299 301 301 298 302 311 314 318 324 325 325 327 330 332 335 336 335 334 333 332 331 331 330 329 328 327 326 325 325 324 324 323 323 322 321 320 319 319 318
302 296 290 289 290 294 294 296 297 297 297 298 299 297 299 311 319 320 321 323 322 323 326 328 331 331 332 330 329 328 327 327 326 325 324 323 322 322 321 320 320 319 319 318 317 316 316 315 315
295 294 286 284 288 293 293 295 297 296 297 298 298 300 301 312 316 318 321 321 322 321 323 323 325 327 327 326 325 325 324 323 322 321 319 319 318 318 317 317 316 316 316 316 315 314 313 313 312
294 289 286 286 287 289 292 295 293 294 296 297 299 296 301 307 315 318 320 320 319 318 316 316 317 319 322 323 322 320 319 319 317 315 314 312 312 312 311 312 312 313 313 313 312 312 312 312 312
296 292 287 285 286 287 292 293 294 295 295 299 299 295 297 306 315 314 318 318 315 316 315 313 312 312 312 313 317 316 314 312 311 311 310 309 308 306 307 307 308 309 310 310 310 311 311 310 309
297 287 284 286 287 288 292 292 295 294 295 296 298 297 306 313 311 309 308 308 309 311 312 311 310 309 309 309 309 311 311 309 308 306 308 303 297 299 300 304 306 307 308 309 309 309 308 307 305
291 285 287 289 287 288 290 292 291 291 292 294 298 307 310 310 308 305 304 302 303 303 305 306 305 307 305 305 305 305 306 304 301 300 299 299 297 298 300 301 304 305 306 306 306 306 305 301 296
291 289 290 290 291 291 291 290 292 290 288 289 295 304 307 307 306 305 304 302 301 300 301 302 303 302 299 303 303 303 301 299 299 299 300 299 299 297 296 295 295 295 299 295 296 295 295 295 295
289 292 292 293 292 291 289 291 290 289 289 294 300 306 306 305 305 305 305 303 301 298 299 300 300 299 299 299 299 298 299 299 298 299 300 298 297 295 295 294 294 293 294 293 293 293 294 294 295
290 291 293 292 292 290 291 288 288 288 290 293 299 304 304 305 305 306 307 305 301 297 298 299 299 299 299 298 297 297 297 297 297 297 298 298 296 295 295 294 294 293 294 293 293 293 293 293 294
291 292 291 292 292 292 289 288 288 287 290 291 294 295 300 303 304 305 306 304 301 299 298 299 299 299 300 297 297 296 296 295 296 296 296 297 296 294 295 294 294 293 293 294 293 293 292 293 293
291 288 289 290 292 291 291 288 287 289 291 290 292 293 294 296 300 303 305 304 301 299 299 298 298 299 298 297 297 296 296 296 295 295 295 295 295 294 294 293 293 293 294 294 294 293 293 292 294
287 286 282 289 291 291 290 284 289 290 290 290 290 292 293 295 296 297 304 305 302 300 299 299 301 298 298 297 296 297 296 295 294 294 294 295 295 294 292 292 292 293 293 293 292 292 291 291 292
286 280 282 285 290 289 288 285 290 290 291 288 289 290 291 292 293 294 294 301 302 300 299 298 298 297 297 297 296 296 296 295 294 294 294 294 295 295 292 292 292 292 292 292 292 291 290 290 291
280 280 284 284 286 286 285 286 287 288 288 286 287 288 290 291 292 295 295 295 300 299 300 298 298 297 297 296 295 294 294 294 294 293 294 294 294 294 292 291 291 291 290 290 290 289 290 290 290
285 283 282 285 287 284 284 283 284 286 287 285 286 287 289 290 292 294 295 294 296 298 298 298 297 297 296 294 293 293 292 293 293 294 296 295 294 294 292 291 290 290 289 289 289 289 289 288 289
286 282 281 285 287 284 282 281 284 286 285 285 285 286 288 289 291 293 295 295 296 297 297 297 297 297 296 296 295 295 294 294 295 295 295 295 295 295 293 291 290 290 289 289 289 289 287 287 288
281 280 279 280 283 284 281 279 282 284 286 286 286 286 287 288 289 291 293 293 295 295 295 297 297 297 297 297 295 293 293 292 292 293 293 294 295 294 293 292 290 289 289 288 288 288 287 285 287
281 282 282 280 275 274 279 269 278 281 282 284 284 284 284 286 289 291 292 292 293 294 295 297 297 297 297 296 294 292 291 290 291 292 293 293 294 293 292 292 290 289 289 288 288 290 288 287 285
280 283 280 279 271 270 273 267 275 281 279 281 282 284 284 285 287 289 291 292 293 293 292 294 296 296 296 295 294 292 292 292 292 291 291 291 292 292 292 291 289 289 289 288 289 288 288 288 286
284 279 279 277 271 264 265 269 274 277 280 280 282 283 285 285 286 287 289 290 289 289 290 291 293 294 295 294 294 293 291 291 290 290 290 290 291 291 291 292 290 289 289 289 289 289 288 288 287
280 272 265 269 265 266 262 268 273 279 281 282 281 282 283 285 285 285 286 286 287 287 288 290 290 290 290 291 291 291 290 290 289 290 289 289 290 290 291 290 289 288 289 289 289 288 288 287 286
277 272 268 261 265 268 263 266 274 280 282 283 283 283 284 284 285 285 285 286 286 286 286 287 287 288 289 289 289 289 289 289 289 289 289 289 289 290 291 290 289 289 289 289 289 287 287 287 286
276 268 276 263 257 262 267 273 278 279 278 281 281 281 281 283 284 283 284 284 284 284 284 284 285 285 287 287 287 288 288 288 287 288 289 289 290 291 291 290 289 289 289 289 288 287 286 287 286
276 278 267 266 259 258 265 263 273 272 273 274 278 277 278 280 282 283 284 284 284 284 283 283 284 284 285 285 285 287 287 287 287 287 287 288 289 290 290 289 288 288 288 288 288 286 286 286 286
271 269 270 270 271 263 261 269 273 271 272 274 274 277 272 273 279 281 282 284 284 283 282 282 283 283 283 284 284 284 285 285 285 285 286 286 288 288 289 289 288 287 287 288 287 286 286 286 285
278 274 275 267 263 265 268 268 272 273 273 274 275 275 273 272 274 274 280 282 282 283 282 281 281 281 282 283 283 283 284 284 283 284 284 285 286 287 287 288 288 288 288 287 287 286 287 285 285
Wind_Speed
9 9 2 5 4 4 3 6 3 3 4 2 3 5 8 3 5 1 2 5 5 8 8 11 16 18 19 19 19 20 20 19 19 19 17 16 16 16 15 15 15 15 14 14 13 14 13 14 14
5 5 5 1 5 1 5 5 5 3 5 4 6 5 6 4 4 6 3 3 5 7 9 9 14 18 19 19 19 19 20 20 17 17 17 16 16 15 15 16 15 15 15 14 14 14 13 13 13
6 3 3 4 3 4 3 4 7 2 5 3 4 7 4 3 5 4 3 5 9 8 8 9 16 19 20 18 19 19 19 19 16 16 16 15 15 15 16 15 15 15 14 14 14 14 14 14 14
2 5 5 4 4 7 3 3 8 6 3 4 5 7 4 2 1 8 10 10 10 9 8 10 15 18 18 17 17 18 17 17 16 15 16 14 15 15 15 15 15 14 14 14 14 14 14 14 15
3 3 2 2 5 7 3 4 3 4 5 2 3 5 4 4 12 12 10 10 11 9 9 9 14 16 17 18 17 17 16 16 17 15 14 14 14 15 14 14 14 14 14 14 14 14 14 14 15
2 3 4 3 7 6 4 1 4 3 5 3 6 6 2 5 9 9 11 10 10 10 9 9 11 13 14 16 17 17 15 16 16 14 13 14 14 14 14 13 13 13 13 14 13 14 14 12 14
3 4 4 2 4 3 2 4 5 3 4 3 3 5 3 3 7 8 12 12 11 11 10 8 9 11 14 13 15 16 15 15 14 14 14 13 13 13 14 13 13 13 13 13 13 13 13 14 13
3 4 2 3 3 2 5 2 1 7 1 1 3 6 5 5 7 8 12 12 10 10 9 8 8 8 8 8 12 15 14 14 13 12 11 11 11 12 12 10 12 13 11 12 12 13 14 15 15
3 5 2 5 5 1 4 5 7 1 4 5 4 2 7 11 10 7 7 6 7 7 8 7 8 7 7 7 7 10 12 11 9 7 8 7 4 4 5 6 8 10 12 12 13 14 14 14 13
5 4 1 4 4 3 3 6 3 4 1 5 6 7 10 8 8 8 7 6 5 6 6 6 7 7 6 7 5 4 4 3 4 4 5 3 4 3 4 4 6 8 11 12 13 13 13 10 5
1 3 1 4 3 5 3 3 6 3 3 2 8 11 9 7 7 7 6 7 6 6 5 7 7 6 5 5 3 2 3 3 3 4 3 4 3 4 3 3 3 4 8 4 6 6 4 6 4
4 4 2 3 3 3 3 6 5 1 3 6 12 13 9 8 8 9 8 8 8 7 7 6 7 6 5 4 3 4 3 3 2 3 4 3 3 4 3 3 4 4 3 5 5 4 5 6 6
2 2 5 2 2 2 2 2 3 4 3 6 10 10 10 9 8 7 8 8 8 8 7 7 6 6 5 5 4 4 3 3 3 3 4 3 3 3 3 3 3 3 4 4 5 4 5 6 7
1 4 4 2 1 2 2 2 3 0 6 7 7 8 8 9 10 7 7 8 10 9 8 8 7 6 6 5 5 4 4 4 4 3 3 4 3 2 3 3 3 3 3 3 3 4 4 4 5
3 3 2 4 4 0 1 2 3 5 3 6 6 6 6 6 6 8 9 8 10 9 10 9 8 7 6 6 5 4 3 3 3 3 3 3 3 3 3 2 2 3 3 5 4 4 4 4 5
2 2 2 2 7 2 3 1 3 6 5 5 6 5 5 3 3 4 7 7 8 9 10 8 8 7 7 6 4 4 3 3 3 3 2 3 2 3 3 2 2 2 3 3 3 3 4 4 4
5 2 3 1 4 4 1 1 3 3 5 7 7 8 7 7 8 7 7 4 9 10 11 9 9 8 7 6 4 4 4 3 2 2 2 3 2 1 2 2 2 3 3 3 3 3 3 4 5
2 1 1 3 3 4 2 5 4 6 9 7 8 7 7 7 7 6 8 6 5 8 11 10 7 8 7 4 3 2 2 1 2 2 2 4 2 1 1 1 1 1 2 3 3 3 3 3 4
2 1 2 3 1 2 1 2 3 3 8 8 7 7 8 7 5 7 7 6 2 7 8 10 9 7 5 2 3 2 1 1 1 3 4 4 3 2 1 1 2 1 1 2 3 2 4 3 4
5 3 2 1 2 3 5 4 1 4 4 6 7 7 7 6 7 7 9 8 7 5 6 7 7 7 4 3 1 1 2 2 2 3 4 5 5 4 3 3 2 2 2 3 3 3 3 2 4
4 3 2 1 7 2 5 4 3 2 6 8 7 5 5 6 6 6 8 8 8 7 5 6 7 8 6 5 3 1 2 2 1 1 2 4 6 5 5 3 3 3 2 2 2 2 1 1 3
2 3 2 3 5 3 4 6 5 5 5 5 6 7 6 6 6 6 7 7 8 7 7 7 6 7 5 6 3 2 2 2 3 3 3 4 6 5 5 5 4 4 3 3 3 2 2 1 3
2 3 4 3 4 5 5 5 8 8 4 4 5 6 6 6 7 6 7 7 7 7 7 6 7 6 4 4 3 2 2 2 2 2 2 3 4 6 6 6 5 5 4 4 5 4 3 2 2
3 4 7 4 4 4 5 5 6 7 8 5 4 6 7 7 7 7 7 7 7 8 8 7 6 4 3 2 0 1 2 4 3 3 4 4 4 4 6 6 5 5 5 5 5 5 5 5 4
6 6 5 6 5 7 4 2 11 2 6 8 8 7 6 6 6 6 7 6 6 7 7 6 7 6 6 6 5 4 3 3 5 5 4 5 3 3 6 6 6 5 5 6 5 5 5 5 4
1 6 7 6 2 5 4 7 7 4 8 9 8 7 6 6 5 5 5 5 6 6 7 7 7 6 7 6 6 5 4 3 3 4 4 4 3 4 5 6 6 7 6 6 5 4 4 5 5
3 1 2 8 2 5 4 7 5 3 5 7 8 7 4 3 3 4 4 4 5 5 6 5 6 6 6 6 5 5 5 5 5 6 5 4 5 5 6 6 6 6 6 6 6 5 6 5 5
5 1 5 4 1 5 7 7 8 8 9 4 8 7 4 1 0 1 2 3 2 4 4 5 5 5 5 6 6 5 6 5 6 5 6 6 6 6 6 7 6 7 7 6 6 6 6 6 5
2 2 2 3 4 6 2 9 6 9 9 11 8 7 7 6 5 3 4 4 3 1 4 5 5 5 5 6 6 6 6 6 6 6 6 6 6 7 7 7 7 8 8 7 7 8 7 8 7
3 6 5 6 7 3 2 13 2 7 8 9 9 8 6 6 5 5 4 3 3 4 4 4 4 5 5 6 6 6 6 6 6 6 7 6 7 8 8 9 9 9 9 9 10 10 9 9 10
Wind_Direction
321 306 307 26 48 68 248 252 152 94 46 38 360 57 109 63 50 145 129 52 53 50 74 79 88 91 92 90 89 90 80 73 71 71 74 74 72 71 71 70 65 59 55 53 51 49 43 35 28
322 312 37 69 88 55 269 239 87 27 130 120 64 97 36 71 79 120 114 31 58 68 71 80 94 97 94 93 91 91 90 83 80 78 75 74 71 71 68 64 64 58 53 50 47 42 41 35 27
308 222 88 122 148 183 226 34 116 97 62 59 83 55 63 52 122 108 120 96 92 69 65 76 92 95 92 91 91 88 87 92 86 85 79 72 71 68 65 62 59 56 53 45 37 36 33 28 22
326 10 9 99 240 262 232 152 151 139 52 48 106 72 57 305 119 126 125 97 87 79 82 76 93 94 98 97 91 91 94 92 89 83 81 80 76 70 65 60 56 54 48 45 42 32 28 27 20
29 62 87 170 245 261 161 167 65 79 131 115 83 152 59 46 105 115 115 106 98 84 81 76 89 96 102 101 99 95 92 90 86 83 81 78 78 76 69 63 57 52 50 44 37 34 27 21 20
6 103 79 219 237 266 47 36 98 49 108 156 84 103 82 128 122 141 131 117 107 98 90 80 77 96 100 105 104 101 96 92 90 88 81 78 68 65 65 63 59 52 43 41 37 29 23 21 15
115 88 217 220 255 55 72 327 49 27 19 14 109 80 150 177 161 158 134 125 116 108 98 86 78 71 81 85 95 97 96 95 95 93 87 77 74 69 63 52 49 44 40 35 27 26 21 15 16
90 95 282 245 234 88 318 48 124 67 57 350 23 149 179 194 144 100 132 132 128 121 118 109 95 82 73 79 90 99 100 99 102 98 97 83 84 78 68 54 48 44 33 25 22 20 22 15 12
55 61 325 337 31 134 12 56 348 176 85 62 20 105 138 134 114 99 102 103 110 123 131 126 116 110 103 98 97 101 106 106 98 86 92 82 83 89 74 61 42 31 29 20 19 17 15 8 3
83 96 60 338 10 13 53 64 10 38 348 67 56 63 105 115 124 137 139 136 126 132 142 133 131 139 146 128 139 122 113 103 82 70 68 74 61 39 58 24 19 25 25 18 17 11 9 3 351
231 135 15 26 34 351 18 39 311 19 68 254 171 155 144 140 148 155 168 166 155 154 133 136 144 150 140 127 129 116 103 93 79 70 56 55 52 44 37 34 19 14 24 9 10 5 358 353 354
111 73 59 16 9 18 32 304 343 293 168 148 150 159 150 163 176 180 183 175 166 156 145 138 140 124 132 126 136 136 125 115 107 77 57 71 46 34 38 26 11 30 22 9 360 350 340 344 342
97 115 76 139 75 100 330 264 245 263 127 117 124 150 165 173 189 193 191 176 159 153 156 155 144 135 136 120 126 129 123 129 132 89 68 76 64 45 32 32 33 32 8 15 347 349 351 344 338
138 102 130 77 77 53 30 276 3 100 116 127 130 164 182 182 191 191 187 165 165 157 159 156 154 159 144 144 137 138 139 134 119 113 99 71 85 64 50 26 28 26 6 353 350 349 351 335 330
121 84 73 9 352 323 61 35 221 212 148 142 141 149 134 153 161 186 186 160 162 167 162 164 160 160 153 153 146 140 152 118 118 128 113 100 85 57 42 29 31 6 353 353 358 357 348 343 333
109 49 90 332 359 321 57 242 228 187 156 188 162 129 114 121 123 115 185 170 164 153 162 159 153 158 161 161 157 152 148 139 145 140 127 110 83 63 36 21 15 348 360 356 357 2 338 333 323
11 197 159 282 21 324 147 207 330 337 15 50 69 77 68 53 35 19 10 219 169 166 154 158 151 164 168 170 162 156 154 149 158 144 154 171 148 84 50 360 334 4 360 358 357 350 352 330 328
265 244 250 145 327 354 277 272 31 10 82 90 84 75 65 54 23 6 356 349 194 164 158 154 153 160 161 150 123 110 126 148 159 175 183 184 181 194 64 334 327 7 357 346 352 341 331 310 317
273 93 97 129 333 343 299 6 4 40 67 72 66 65 53 45 5 10 350 340 114 129 142 151 149 167 145 122 106 75 210 199 227 212 202 191 192 218 226 269 309 346 352 321 325 327 336 318 330
27 66 8 50 19 21 3 317 144 88 68 85 96 73 66 38 24 14 12 16 27 91 138 143 147 146 133 120 158 158 170 188 191 199 201 204 204 212 221 233 258 277 308 332 337 355 333 317 356
39 69 26 242 329 341 350 332 162 57 88 71 59 81 68 71 48 26 27 20 32 42 86 149 146 145 153 164 120 67 46 35 14 247 225 223 210 212 215 232 236 258 246 269 270 281 299 310 312
129 341 64 22 51 232 66 270 232 186 113 81 73 63 65 64 51 46 35 34 32 20 44 86 116 142 153 136 136 150 182 201 233 222 227 228 216 218 217 223 222 230 237 251 254 233 209 194 267
139 45 57 72 79 53 331 72 276 143 155 154 115 94 79 67 67 64 53 41 29 32 44 54 77 84 108 134 140 167 243 254 292 304 268 247 238 233 230 222 223 230 232 242 237 247 242 226 221
82 58 32 46 86 17 257 125 264 193 182 161 132 99 87 72 56 54 49 45 34 21 24 30 56 63 78 104 206 234 264 296 319 314 306 284 263 251 235 228 217 220 227 235 238 241 232 233 238
60 54 352 356 10 223 318 31 244 226 156 151 143 112 85 76 66 61 59 53 53 45 36 37 41 34 24 25 16 350 314 296 284 283 275 288 284 260 248 222 216 215 220 229 233 231 233 236 222
67 139 154 203 237 261 13 237 262 140 110 115 103 103 76 69 75 73 74 71 60 55 48 47 43 33 25 22 10 359 350 320 295 283 279 271 263 262 263 242 224 220 220 223 223 226 233 231 230
286 37 151 96 66 46 239 289 298 165 127 120 114 96 86 70 85 86 65 83 86 64 47 42 33 16 10 1 351 352 354 349 327 312 296 283 281 274 268 249 236 220 222 223 221 225 232 235 227
149 288 37 357 9 285 292 278 237 224 206 202 148 155 171 242 114 35 15 19 52 64 31 15 12 8 344 346 340 326 329 332 322 321 316 306 290 278 277 267 245 233 228 224 220 232 229 230 227
20 336 22 124 157 181 260 262 205 218 199 183 181 186 205 228 241 270 296 309 333 12 18 355 357 352 335 331 323 323 320 324 322 315 310 307 300 293 277 260 246 238 232 224 222 231 229 230 234
182 197 167 130 275 235 157 268 232 250 216 181 185 203 226 221 241 259 272 286 310 313 325 328 325 325 313 308 310 308 313 318 313 300 296 300 300 300 287 280 260 246 234 227 223 234 236 225 234